SCP
0 0 0 0 0 0 0 0 0 0 0 0 0 0 0 0 0 0 0 0 0 0 0 0 0 0 0 0 0 0 0 0 0 -0 -0 -0 0 0 0 0 -0 -0 -0 0 0 0 0 -0 -0 0 0 0 0 0
0 0 0 0 0 0 0 0 0 0 0 0 0 0 0 0 0 0 0 0 0 0 0 0 0 0 0 0 0 0 0 0 -0 -0 -0 -0 0 0 0 0 0 0 0 0 0 0 0 0 -0 0 0 0 0 0
0 0 0 0 0 0 0 0 0 0 0 0 0 0 0 0 0 0 0 0 0 0 0 0 0 0 0 0 0 0 0 0 0 0 0 0 0 0 0 0 0 0 0 0 0 0 -0 -0 -0 0 0 0 0 0
0 0 0 0 0 0 0 0 0 0 0 0 0 0 0 0 0 0 0 0 0 0 0 0 0 0 0 0 0 0 0 0 0 0 0 0 -0 -0 0 0 0 0 0 0 0 0 -0 -0 -0 0 0 0 0 0
0 0 0 0 0 0 0 0 0 0 0 0 0 0 0 0 0 0 0 0 0 0 0 0 0 0 0 0 0 0 0 0 0 -0 0 -0 -0 -0 -0 -0 0 0 0 0 0 0 0 -0 -0 -0 0 0 0 0
0 0 0 0 0 0 0 0 0 0 0 0 0 0 0 0 0 0 0 0 0 0 0 0 0 0 0 0 0 0 0 0 0 -0 -0 -0 -0 -0 0 0 0 0 0 0 0 0 0 0 0 0 -0 0 0 0
0 0 0 0 0 0 0 0 0 0 0 0 0 0 0 0 0 0 0 0 0 0 0 0 0 0 0 0 0 0 0 0 0 -0 -0 -0 -0 -0 -0 0 0 0 0 0 0 0 0 0 0 0 0 0 -0 0
0 0 0 0 0 0 0 0 0 0 0 0 0 0 0 0 0 0 0 0 0 0 0 0 0 0 0 0 0 0 0 0 0 -0 0 -0 -0 -0 -0 0 0 0 0 0 0 0 0 0 0 0 0 0 -0 -0
0 0 0 0 0 0 0 0 0 0 0 0 0 0 0 0 0 0 0 0 0 0 0 0 0 0 0 0 0 0 0 0 0 -0 -0 -0 -0 -0 -0 0 0 0 0 0 0 0 0 0 0 0 0 0 -0 0
0 0 0 0 0 0 0 0 0 0 0 0 0 0 0 0 0 0 0 0 0 0 0 0 0 0 0 0 0 0 0 0 0 -0 -0 -0 -0 -0 -0 -0 0 0 0 0 0 0 0 0 0 0 0 0 0 0
0 0 0 0 0 0 0 0 0 0 0 0 0 0 0 0 0 0 0 0 0 0 0 0 0 0 0 0 0 0 0 0 0 -0 -0 -0 -0 -0 -0 -0 -0 0 0 0 0 0 0 0 0 0 0 0 0 0
0 0 0 0 0 0 0 0 0 0 0 0 0 0 0 0 0 0 0 0 0 0 0 0 0 0 0 0 0 0 0 0 0 0 -0 -0 -0 -0 -0 -0 0 0 0 0 0 0 0 0 0 0 0 0 0 0
0 0 0 0 0 0 0 0 0 0 0 0 0 0 0 0 0 0 0 0 0 0 0 0 0 0 0 0 0 0 0 0 0 -0 -0 -0 0 0 -0 -0 0 0 0 0 0 0 0 0 0 0 0 0 0 0
0 0 0 0 0 0 0 0 0 0 0 0 0 0 0 0 0 0 0 0 0 0 0 0 0 0 0 0 0 0 0 0 0 -0 -0 -0 0 0 -0 0 -0 0 0 0 0 0 0 0 0 0 0 0 0 0
0 0 0 0 0 0 0 0 0 0 0 0 0 0 0 0 0 0 0 0 0 0 0 0 0 0 0 0 0 0 0 0 0 0 -0 0 -0 0 -0 0 0 -0 0 0 0 0 0 0 0 0 0 0 0 0
0 0 0 0 0 0 0 0 0 0 0 0 0 0 0 0 0 0 0 0 0 0 0 0 0 0 0 0 0 0 0 0 0 0 0 -0 -0 -0 -0 -0 -0 -0 -0 -0 0 0 0 0 0 0 0 0 0 0
0 0 0 0 0 0 0 0 0 0 0 0 0 0 0 0 0 0 0 0 0 0 0 0 0 0 0 0 0 0 0 0 0 0 0 -0 -0 0 0 0 0 -0 -0 -0 0 0 0 0 0 0 0 0 0 0
0 0 0 0 0 0 0 0 0 0 0 0 0 0 0 0 0 0 0 0 0 0 0 0 0 0 0 0 0 0 0 0 0 0 0 -0 -0 0 0 0 0 0 0 0 -0 0 0 0 0 0 0 0 0 0
0 0 0 0 0 0 0 0 0 0 0 0 0 0 0 0 -0 0 0 0 0 0 0 0 0 0 0 0 0 0 0 0 0 0 0 -0 -0 -0 -0 -0 -0 -0 -0 -0 0 0 0 0 0 0 0 0 0 0
0 0 0 0 0 0 0 0 0 0 0 0 0 0 0 0 0 0 0 0 0 0 0 0 0 0 0 0 0 0 0 0 0 0 0 0 -0 -0 -0 -0 -0 -0 0 0 0 0 0 0 0 0 0 0 0 0
0 0 0 0 0 0 0 0 0 0 0 0 0 0 0 0 0 0 0 0 0 0 0 0 0 0 0 0 0 0 0 0 0 0 -0 -0 -0 -0 0 0 -0 0 0 0 0 0 0 0 0 0 0 0 0 0
0 0 0 0 0 0 0 0 0 0 0 0 0 0 0 0 0 0 0 0 0 0 0 0 0 0 0 0 0 0 0 -0 0 0 -0 -0 -0 -0 0 0 0 0 0 0 0 0 -0 0 0 0 0 0 0 0
0 0 0 0 0 0 0 0 0 0 0 0 0 0 0 0 0 0 0 0 0 0 0 0 0 0 0 0 0 0 0 0 0 0 -0 -0 0 0 0 0 0 0 0 0 0 0 0 0 0 0 0 0 0 0
0 0 0 0 0 0 0 0 0 0 0 0 0 0 0 0 0 0 0 0 0 0 0 0 0 0 0 0 0 0 0 0 0 0 0 -0 -0 0 0 0 0 0 0 0 0 0 0 0 -0 -0 -0 -0 0 0
0 0 0 0 0 0 0 0 0 0 0 0 0 0 0 0 0 0 0 0 0 0 0 0 0 0 0 0 0 0 0 0 0 0 0 0 0 0 0 0 0 0 0 0 0 0 0 0 0 0 0 0 0 0
0 0 0 0 0 0 0 0 0 0 0 0 0 0 0 0 0 0 0 0 0 0 0 0 0 0 0 0 0 0 0 0 0 0 0 0 0 0 0 0 0 0 0 0 0 0 0 0 0 0 0 0 0 0
0 0 0 0 0 0 0 0 0 0 0 0 0 0 0 0 0 0 0 0 0 0 0 0 0 0 0 0 0 0 0 0 0 0 0 0 0 0 0 0 0 0 0 0 0 -0 0 0 0 0 0 0 0 0
0 0 0 0 0 0 0 0 0 0 0 0 0 0 0 0 0 0 0 0 0 0 0 0 0 0 0 0 0 0 0 0 0 0 0 0 0 0 0 0 0 -0 0 0 0 -0 -0 -0 0 0 0 0 0 0
0 0 0 0 0 0 0 0 0 0 0 0 0 0 0 0 0 0 0 0 0 0 0 0 0 0 0 0 0 0 -0 -0 0 0 0 0 0 0 0 0 0 0 -0 0 -0 0 0 0 0 0 0 0 0 0
0 0 0 0 0 0 0 0 -0 0 0 0 0 0 0 0 0 0 0 0 0 0 0 0 0 0 0 0 0 0 0 0 0 0 0 0 0 0 0 0 0 0 0 0 0 0 0 0 0 0 0 0 0 0
0 0 0 0 0 0 0 0 0 0 0 0 0 0 0 0 0 0 0 0 0 0 0 0 0 0 0 0 0 -0 0 0 0 0 0 0 0 0 0 0 0 0 0 0 0 0 0 0 0 0 0 0 0 0
0 0 0 0 0 0 0 0 0 0 0 0 0 0 0 0 0 0 -0 0 0 0 0 0 0 0 0 0 -0 0 0 0 0 0 0 0 -0 0 0 0 0 0 0 0 0 0 0 0 0 0 0 0 0 0
0 0 0 0 0 0 0 0 0 0 0 0 0 0 0 0 0 0 0 0 0 0 0 0 0 0 0 0 0 -0 -0 -0 -0 0 0 0 -0 0 -0 -0 0 0 0 0 0 0 0 0 0 0 0 0 0 0
Wind_Speed_500mb
72 73 73 67 67 65 63 58 56 52 50 51 55 51 47 39 27 27 22 20 16 14 42 22 19 24 21 14 6 19 19 5 6 10 9 7 5 8 7 5 16 10 14 8 8 6 3 50 31 15 9 41 32 37
69 69 68 69 68 64 62 56 58 53 50 51 51 50 52 40 27 28 24 15 13 28 40 66 57 42 43 33 20 10 10 9 11 5 6 6 5 6 9 7 7 4 8 9 7 6 16 41 34 49 30 16 18 53
60 58 60 63 64 61 61 59 54 53 51 52 56 56 46 46 27 26 30 22 16 24 36 18 6 8 24 18 17 12 7 7 8 13 7 3 5 4 7 6 10 4 7 6 12 6 28 40 55 44 20 31 47 56
58 54 49 53 54 58 62 60 55 55 48 54 57 55 46 38 20 26 31 26 16 11 11 16 15 37 30 20 26 29 32 27 29 13 5 4 5 7 3 5 5 7 17 15 8 10 29 45 52 39 38 46 56 67
54 50 48 46 51 53 51 52 54 58 46 54 55 52 42 29 17 28 36 37 30 17 9 29 43 6 9 15 11 11 17 28 14 6 3 3 4 3 2 3 2 10 10 7 5 21 12 20 33 32 38 46 57 79
53 52 53 49 48 45 45 46 44 44 43 55 49 47 32 23 20 17 11 6 8 32 9 9 18 15 12 16 10 10 12 13 9 5 4 3 2 4 4 3 3 12 9 13 10 23 17 17 30 32 43 49 62 77
55 54 52 52 52 52 49 44 39 45 42 46 39 34 25 20 23 11 9 3 6 15 8 13 12 10 18 10 8 10 10 11 8 4 4 3 1 2 1 3 6 12 14 15 14 12 10 24 20 36 41 49 57 64
55 55 55 54 51 48 48 42 40 45 45 42 35 29 30 21 17 17 17 34 23 17 9 6 9 12 5 5 4 8 7 9 1 3 2 3 2 2 3 6 8 5 8 15 19 17 19 17 30 36 44 51 65 69
57 55 53 54 50 47 42 37 38 38 34 31 29 16 8 10 5 1 11 10 32 16 8 8 6 6 8 6 4 3 5 4 2 3 1 2 2 3 3 7 4 5 2 6 13 15 18 27 29 38 43 49 59 60
61 57 52 50 47 42 38 36 37 41 37 27 18 8 4 5 9 10 7 26 25 12 13 11 12 8 7 4 3 2 4 2 3 2 5 3 3 6 5 0 1 8 10 10 11 12 17 21 26 32 40 44 53 61
60 53 48 43 40 39 38 41 35 38 34 24 19 15 15 14 19 7 8 11 15 9 13 14 30 12 8 7 4 4 1 4 3 2 4 2 4 7 12 5 10 9 5 3 1 10 14 20 24 30 36 43 48 54
51 49 47 37 34 34 38 34 35 36 21 17 15 15 18 12 10 8 7 8 12 9 12 11 15 21 8 9 7 6 2 2 3 10 4 4 2 17 17 10 13 14 8 10 8 14 18 18 22 33 38 42 47 50
44 45 44 39 33 32 33 32 32 33 28 21 8 6 8 7 10 11 14 10 8 11 15 15 7 7 7 9 6 4 6 3 9 4 5 2 17 23 25 21 22 24 19 17 17 20 21 20 21 30 39 43 49 54
43 42 43 39 36 33 32 36 33 40 32 11 11 9 12 10 12 12 14 7 12 9 15 13 6 7 6 6 1 5 3 5 3 4 4 7 30 26 28 26 29 23 22 21 21 20 21 22 27 32 35 38 43 46
45 43 45 41 38 36 34 38 39 57 18 13 13 11 17 21 16 12 20 13 7 4 16 9 5 4 3 4 1 1 5 6 5 2 1 21 36 31 34 29 26 23 22 21 24 24 23 25 28 33 35 38 39 42
38 46 47 37 40 35 39 46 59 47 14 13 14 10 15 9 19 18 23 16 14 19 12 4 4 4 5 2 5 6 3 5 1 2 3 37 40 37 37 35 31 32 31 25 21 21 25 24 29 34 37 37 34 36
40 48 35 32 27 30 50 56 37 17 15 11 15 28 22 11 17 13 14 13 22 21 6 5 7 3 5 4 5 5 5 1 2 2 11 45 51 46 44 44 37 34 31 23 20 17 15 22 26 32 38 36 34 34
46 38 27 34 42 53 51 24 19 16 15 24 13 12 23 26 17 13 9 13 21 15 15 5 9 7 5 5 4 4 8 8 6 4 17 51 53 51 43 36 32 31 28 25 24 22 20 19 23 28 32 38 39 35
39 31 48 45 53 48 22 19 15 11 27 12 21 23 16 16 34 33 11 12 16 18 14 9 5 5 5 9 8 8 8 9 5 4 20 52 55 50 39 32 30 29 27 25 25 24 21 19 20 25 31 38 34 35
39 26 64 59 63 19 15 12 16 10 10 15 18 18 17 15 20 27 28 22 25 14 8 7 7 10 10 7 9 10 6 9 10 13 22 38 48 47 38 34 32 28 28 28 25 24 24 23 21 22 26 32 35 34
36 60 84 78 40 14 15 12 14 11 8 11 12 19 9 17 14 14 18 31 16 10 9 13 18 16 10 11 10 7 6 8 12 13 27 41 50 48 40 37 32 30 30 29 27 25 22 20 20 21 25 28 30 30
63 95 62 53 9 10 9 17 9 6 8 5 7 12 7 9 10 13 22 11 11 17 25 31 29 22 12 15 16 16 10 9 12 11 16 42 55 52 47 43 38 34 31 29 28 26 24 22 23 27 31 33 33 32
78 61 35 10 9 12 3 13 9 8 6 4 6 6 5 6 5 22 12 12 14 24 29 29 28 24 17 15 15 18 16 12 13 16 18 39 49 49 48 45 40 35 34 32 29 28 29 28 27 29 32 34 33 31
58 16 12 16 13 8 9 10 10 6 3 3 4 4 5 5 13 7 5 9 15 26 27 28 25 20 19 20 23 21 18 14 14 18 22 35 46 49 46 43 38 34 28 29 36 37 35 32 30 30 30 31 30 28
12 10 9 7 11 10 9 9 5 4 4 4 4 3 4 8 5 5 4 8 19 24 25 24 23 23 22 23 25 23 19 15 16 24 27 30 39 49 47 44 39 35 33 36 44 43 37 32 29 28 28 29 29 28
5 9 12 14 7 8 9 8 11 10 6 8 9 3 5 4 5 5 2 2 4 4 11 23 28 28 30 24 21 22 15 11 16 22 26 31 33 41 55 49 46 41 40 38 48 45 37 32 28 26 27 29 28 28
4 4 6 8 4 3 4 3 4 3 6 7 4 6 6 6 6 2 1 8 8 7 12 18 29 32 29 25 20 17 12 8 10 14 16 20 25 29 41 62 56 45 45 40 45 46 40 33 26 24 24 27 29 35
1 1 6 10 5 4 1 4 6 7 4 3 4 6 4 3 4 5 5 13 14 10 1 16 29 31 27 30 21 17 13 7 6 8 12 18 25 30 27 42 30 53 44 46 42 42 38 32 25 19 16 14 16 28
1 3 3 5 2 3 2 2 2 4 3 2 0 2 5 3 4 5 4 10 15 7 10 28 36 34 33 30 21 16 11 10 10 4 5 14 22 36 36 35 33 45 46 47 44 39 33 29 23 18 16 11 13 24
2 2 3 2 2 1 3 4 9 11 9 4 3 3 3 2 2 4 8 11 9 8 15 27 33 30 27 24 22 19 16 10 6 6 4 7 16 24 29 40 39 43 47 45 43 40 35 31 26 25 24 18 14 22
3 3 2 1 2 2 5 8 11 13 6 1 3 2 1 2 5 7 11 12 6 18 24 29 27 21 19 19 14 14 13 8 5 0 8 10 9 21 33 47 35 41 42 38 36 37 33 31 26 25 30 29 25 22
3 3 2 1 1 2 2 3 3 3 3 3 2 2 1 0 2 5 15 3 16 23 29 23 21 20 19 16 15 12 9 6 4 5 2 6 14 26 32 42 35 29 25 25 28 29 32 31 28 25 25 27 32 35
2 2 1 2 1 2 4 4 4 5 4 3 5 2 4 3 2 6 13 19 17 25 28 25 27 29 23 17 12 10 9 9 13 14 14 11 11 26 30 33 27 20 19 23 27 26 22 21 21 19 18 24 28 31
Wind_Direction_500mb
288 286 290 293 295 296 298 303 306 308 303 310 314 318 310 304 307 311 316 293 259 254 284 265 261 266 278 264 275 318 334 5 337 11 353 344 315 16 339 351 334 348 332 354 309 330 22 352 345 3 305 332 99 80
289 290 289 289 290 290 289 293 300 305 301 302 309 304 304 304 294 303 309 304 254 269 272 292 289 273 255 256 282 289 286 298 351 343 344 299 307 346 360 332 336 316 13 308 334 337 321 322 292 302 284 250 90 106
291 293 293 290 285 283 281 284 292 297 300 297 303 300 296 295 286 293 297 297 284 288 303 286 293 299 302 277 244 240 256 317 343 335 306 302 325 341 355 11 300 310 9 264 313 52 336 331 360 21 91 131 115 108
291 291 302 305 298 286 279 277 286 286 288 293 300 294 289 286 280 288 289 293 263 281 282 282 299 306 286 280 267 267 264 279 307 319 312 305 299 33 33 338 305 312 310 324 278 348 339 4 8 42 85 114 113 110
299 295 294 300 308 305 295 283 278 283 282 288 294 293 285 268 277 291 292 285 263 224 282 291 314 140 278 311 297 244 258 261 291 289 268 298 291 298 143 200 315 337 331 345 327 335 310 311 9 83 90 100 111 123
292 291 288 291 296 305 304 283 280 286 286 295 292 286 276 265 281 310 295 292 234 204 296 299 310 292 283 311 258 247 253 226 241 254 266 249 251 277 320 337 191 339 296 295 284 326 354 26 67 93 109 113 122 124
289 287 287 288 289 296 303 302 289 287 286 289 281 271 248 250 271 253 252 284 206 188 258 286 288 279 292 285 247 225 210 230 223 238 238 275 330 293 327 304 317 353 333 345 315 307 27 49 65 100 115 124 126 125
295 289 284 284 285 289 295 298 299 293 283 284 272 259 265 259 268 272 283 238 206 209 242 276 279 299 276 269 239 195 210 209 210 236 221 267 225 255 269 296 285 342 40 35 50 73 82 91 106 111 120 130 121 120
296 295 288 280 283 284 287 301 295 287 272 257 251 242 270 257 252 266 224 229 203 225 260 231 275 287 308 261 247 198 208 219 238 258 200 256 329 270 282 335 337 238 349 98 75 89 102 101 110 119 129 126 128 124
294 298 291 283 277 282 275 286 286 282 258 247 214 192 137 192 192 178 140 164 199 234 238 246 229 263 286 284 227 182 206 187 266 95 141 260 262 260 217 220 259 133 140 139 104 83 91 103 115 123 127 131 135 136
293 298 294 284 275 274 271 280 272 247 229 209 199 178 176 184 181 216 211 189 194 233 221 233 217 238 246 251 287 213 238 166 270 128 266 272 248 197 168 155 187 140 128 83 136 144 130 120 124 133 136 140 144 142
288 298 300 285 269 263 274 278 259 242 226 183 153 157 165 179 206 204 208 205 209 230 198 204 219 211 240 230 246 189 255 220 278 151 252 261 158 149 149 142 153 169 170 122 104 137 138 128 129 132 137 141 139 137
278 292 295 287 276 253 282 274 254 236 180 149 136 142 166 187 217 218 197 210 204 196 197 193 202 199 210 224 236 218 240 202 141 226 285 279 153 153 145 123 130 132 120 111 98 121 137 141 142 135 133 131 130 132
269 283 288 277 276 258 270 252 235 186 170 167 164 176 206 191 235 205 214 214 207 177 178 177 173 209 201 212 208 260 76 185 232 229 251 159 168 160 160 148 130 128 121 122 125 123 122 122 127 131 129 133 134 139
266 273 277 265 260 252 260 244 215 187 176 175 185 214 218 231 255 255 239 235 213 224 158 149 139 205 195 241 224 149 209 242 243 304 340 166 163 158 163 163 156 152 153 145 137 135 140 144 147 151 154 156 159 155
260 274 269 257 254 245 229 205 179 186 181 194 228 230 235 251 249 231 234 230 230 215 171 147 136 202 208 234 213 230 261 240 198 237 156 162 165 165 167 169 162 157 155 149 138 136 144 146 159 159 155 158 161 160
265 271 263 263 250 228 208 188 177 189 208 220 231 230 240 273 252 229 225 226 192 162 177 155 201 202 123 221 232 200 231 224 248 220 175 174 172 169 168 174 181 184 181 177 176 172 150 155 163 167 168 167 164 161
250 253 259 247 214 185 175 170 172 200 233 228 237 238 216 227 244 248 231 205 164 186 158 176 136 194 212 214 221 217 234 245 265 230 183 178 178 180 176 177 176 176 179 185 190 186 178 168 167 172 173 169 167 165
240 250 220 233 209 176 165 186 188 230 225 229 233 240 240 238 239 236 220 180 179 161 153 166 187 204 220 215 246 255 263 222 206 201 179 183 187 181 181 187 189 189 190 188 188 188 181 175 178 180 180 179 176 175
232 240 212 213 201 153 164 194 198 249 229 217 217 214 205 217 232 226 224 205 186 169 184 207 206 202 205 249 258 271 266 204 191 149 161 181 188 188 190 188 187 186 189 189 187 187 183 181 182 186 188 188 187 187
235 205 194 188 172 171 180 177 195 232 240 224 217 202 207 210 209 195 186 188 181 205 201 207 211 222 250 261 255 226 221 221 217 211 186 175 184 188 189 188 186 187 189 189 187 186 189 189 179 176 175 177 177 179
160 177 161 170 173 193 225 200 209 226 224 225 200 205 193 190 190 192 172 178 210 214 214 223 234 242 262 259 242 226 219 222 214 213 194 187 176 183 189 189 188 190 193 195 193 188 179 173 167 160 155 157 159 159
149 157 148 146 178 196 227 189 216 212 213 171 183 196 199 199 188 165 197 201 210 217 229 238 247 245 255 237 224 204 209 217 212 205 197 190 188 189 190 191 194 195 195 194 191 184 175 165 159 160 163 166 167 169
143 118 155 175 185 180 193 203 209 209 232 212 203 201 176 160 157 207 233 204 212 226 235 238 235 232 224 211 206 207 206 210 217 200 194 188 191 196 197 197 198 199 200 186 177 173 171 168 166 168 171 178 185 192
125 180 174 173 200 200 187 163 172 184 220 181 206 240 160 161 183 201 228 216 223 232 235 230 226 220 206 202 201 202 209 225 227 208 197 199 205 203 200 203 205 203 194 188 180 178 182 185 188 192 197 203 207 209
127 173 187 178 163 189 193 167 184 185 170 181 215 208 159 168 195 233 192 342 233 233 242 228 219 207 203 206 206 203 205 214 214 207 207 208 211 209 199 201 207 203 194 195 191 188 193 198 207 216 225 228 227 228
101 151 176 197 210 183 202 170 127 167 186 198 168 166 177 194 204 138 76 15 353 298 258 221 202 202 195 179 173 177 174 155 173 199 209 216 221 218 213 205 207 200 197 197 195 197 201 207 219 235 243 249 241 227
85 134 149 168 198 215 83 156 176 180 163 153 167 176 202 182 151 121 59 7 9 7 338 178 177 176 176 168 168 165 156 143 178 209 218 214 210 211 213 210 217 199 200 202 199 199 205 213 224 239 244 246 225 206
47 104 113 156 209 208 240 184 106 64 69 120 355 155 108 92 64 65 21 2 12 41 113 144 145 147 156 165 163 159 137 107 81 79 197 212 208 209 197 200 200 195 197 199 202 205 209 217 224 243 224 236 217 210
37 130 78 101 177 130 54 145 133 95 29 35 69 79 97 106 34 5 347 343 352 165 147 155 148 152 162 170 173 175 167 157 128 58 17 269 242 218 203 201 199 189 190 195 200 205 208 217 224 214 219 228 221 218
42 149 69 45 315 40 91 101 132 160 202 330 1 32 116 113 44 27 331 312 283 173 164 163 165 171 171 169 175 185 186 186 193 252 11 4 234 204 185 188 188 180 181 190 198 200 205 209 216 223 221 227 233 228
131 152 166 189 295 52 109 135 127 115 107 96 27 309 211 124 282 326 340 14 154 161 158 159 151 151 150 138 134 127 124 143 166 174 58 50 40 176 189 187 161 157 171 187 199 204 203 206 218 230 237 242 242 241
94 111 207 292 310 130 153 163 155 119 111 86 16 286 154 173 233 22 54 127 129 125 125 123 132 137 137 137 135 127 100 119 139 130 113 128 125 106 110 117 130 145 175 192 195 196 205 217 219 226 252 264 263 257
Wind_Speed_850mb
72 73 73 67 67 65 63 58 56 52 50 51 55 51 47 39 27 27 22 20 16 14 42 22 19 24 21 14 6 19 19 5 6 10 9 7 5 8 7 5 16 10 14 8 8 6 3 50 31 15 9 41 32 37
69 69 68 69 68 64 62 56 58 53 50 51 51 50 52 40 27 28 24 15 13 28 40 66 57 42 43 33 20 10 10 9 11 5 6 6 5 6 9 7 7 4 8 9 7 6 16 41 34 49 30 16 18 53
60 58 60 63 64 61 61 59 54 53 51 52 56 56 46 46 27 26 30 22 16 24 36 18 6 8 24 18 17 12 7 7 8 13 7 3 5 4 7 6 10 4 7 6 12 6 28 40 55 44 20 31 47 56
58 54 49 53 54 58 62 60 55 55 48 54 57 55 46 38 20 26 31 26 16 11 11 16 15 37 30 20 26 29 32 27 29 13 5 4 5 7 3 5 5 7 17 15 8 10 29 45 52 39 38 46 56 67
54 50 48 46 51 53 51 52 54 58 46 54 55 52 42 29 17 28 36 37 30 17 9 29 43 6 9 15 11 11 17 28 14 6 3 3 4 3 2 3 2 10 10 7 5 21 12 20 33 32 38 46 57 79
53 52 53 49 48 45 45 46 44 44 43 55 49 47 32 23 20 17 11 6 8 32 9 9 18 15 12 16 10 10 12 13 9 5 4 3 2 4 4 3 3 12 9 13 10 23 17 17 30 32 43 49 62 77
55 54 52 52 52 52 49 44 39 45 42 46 39 34 25 20 23 11 9 3 6 15 8 13 12 10 18 10 8 10 10 11 8 4 4 3 1 2 1 3 6 12 14 15 14 12 10 24 20 36 41 49 57 64
55 55 55 54 51 48 48 42 40 45 45 42 35 29 30 21 17 17 17 34 23 17 9 6 9 12 5 5 4 8 7 9 1 3 2 3 2 2 3 6 8 5 8 15 19 17 19 17 30 36 44 51 65 69
57 55 53 54 50 47 42 37 38 38 34 31 29 16 8 10 5 1 11 10 32 16 8 8 6 6 8 6 4 3 5 4 2 3 1 2 2 3 3 7 4 5 2 6 13 15 18 27 29 38 43 49 59 60
61 57 52 50 47 42 38 36 37 41 37 27 18 8 4 5 9 10 7 26 25 12 13 11 12 8 7 4 3 2 4 2 3 2 5 3 3 6 5 0 1 8 10 10 11 12 17 21 26 32 40 44 53 61
60 53 48 43 40 39 38 41 35 38 34 24 19 15 15 14 19 7 8 11 15 9 13 14 30 12 8 7 4 4 1 4 3 2 4 2 4 7 12 5 10 9 5 3 1 10 14 20 24 30 36 43 48 54
51 49 47 37 34 34 38 34 35 36 21 17 15 15 18 12 10 8 7 8 12 9 12 11 15 21 8 9 7 6 2 2 3 10 4 4 2 17 17 10 13 14 8 10 8 14 18 18 22 33 38 42 47 50
44 45 44 39 33 32 33 32 32 33 28 21 8 6 8 7 10 11 14 10 8 11 15 15 7 7 7 9 6 4 6 3 9 4 5 2 17 23 25 21 22 24 19 17 17 20 21 20 21 30 39 43 49 54
43 42 43 39 36 33 32 36 33 40 32 11 11 9 12 10 12 12 14 7 12 9 15 13 6 7 6 6 1 5 3 5 3 4 4 7 30 26 28 26 29 23 22 21 21 20 21 22 27 32 35 38 43 46
45 43 45 41 38 36 34 38 39 57 18 13 13 11 17 21 16 12 20 13 7 4 16 9 5 4 3 4 1 1 5 6 5 2 1 21 36 31 34 29 26 23 22 21 24 24 23 25 28 33 35 38 39 42
38 46 47 37 40 35 39 46 59 47 14 13 14 10 15 9 19 18 23 16 14 19 12 4 4 4 5 2 5 6 3 5 1 2 3 37 40 37 37 35 31 32 31 25 21 21 25 24 29 34 37 37 34 36
40 48 35 32 27 30 50 56 37 17 15 11 15 28 22 11 17 13 14 13 22 21 6 5 7 3 5 4 5 5 5 1 2 2 11 45 51 46 44 44 37 34 31 23 20 17 15 22 26 32 38 36 34 34
46 38 27 34 42 53 51 24 19 16 15 24 13 12 23 26 17 13 9 13 21 15 15 5 9 7 5 5 4 4 8 8 6 4 17 51 53 51 43 36 32 31 28 25 24 22 20 19 23 28 32 38 39 35
39 31 48 45 53 48 22 19 15 11 27 12 21 23 16 16 34 33 11 12 16 18 14 9 5 5 5 9 8 8 8 9 5 4 20 52 55 50 39 32 30 29 27 25 25 24 21 19 20 25 31 38 34 35
39 26 64 59 63 19 15 12 16 10 10 15 18 18 17 15 20 27 28 22 25 14 8 7 7 10 10 7 9 10 6 9 10 13 22 38 48 47 38 34 32 28 28 28 25 24 24 23 21 22 26 32 35 34
36 60 84 78 40 14 15 12 14 11 8 11 12 19 9 17 14 14 18 31 16 10 9 13 18 16 10 11 10 7 6 8 12 13 27 41 50 48 40 37 32 30 30 29 27 25 22 20 20 21 25 28 30 30
63 95 62 53 9 10 9 17 9 6 8 5 7 12 7 9 10 13 22 11 11 17 25 31 29 22 12 15 16 16 10 9 12 11 16 42 55 52 47 43 38 34 31 29 28 26 24 22 23 27 31 33 33 32
78 61 35 10 9 12 3 13 9 8 6 4 6 6 5 6 5 22 12 12 14 24 29 29 28 24 17 15 15 18 16 12 13 16 18 39 49 49 48 45 40 35 34 32 29 28 29 28 27 29 32 34 33 31
58 16 12 16 13 8 9 10 10 6 3 3 4 4 5 5 13 7 5 9 15 26 27 28 25 20 19 20 23 21 18 14 14 18 22 35 46 49 46 43 38 34 28 29 36 37 35 32 30 30 30 31 30 28
12 10 9 7 11 10 9 9 5 4 4 4 4 3 4 8 5 5 4 8 19 24 25 24 23 23 22 23 25 23 19 15 16 24 27 30 39 49 47 44 39 35 33 36 44 43 37 32 29 28 28 29 29 28
5 9 12 14 7 8 9 8 11 10 6 8 9 3 5 4 5 5 2 2 4 4 11 23 28 28 30 24 21 22 15 11 16 22 26 31 33 41 55 49 46 41 40 38 48 45 37 32 28 26 27 29 28 28
4 4 6 8 4 3 4 3 4 3 6 7 4 6 6 6 6 2 1 8 8 7 12 18 29 32 29 25 20 17 12 8 10 14 16 20 25 29 41 62 56 45 45 40 45 46 40 33 26 24 24 27 29 35
1 1 6 10 5 4 1 4 6 7 4 3 4 6 4 3 4 5 5 13 14 10 1 16 29 31 27 30 21 17 13 7 6 8 12 18 25 30 27 42 30 53 44 46 42 42 38 32 25 19 16 14 16 28
1 3 3 5 2 3 2 2 2 4 3 2 0 2 5 3 4 5 4 10 15 7 10 28 36 34 33 30 21 16 11 10 10 4 5 14 22 36 36 35 33 45 46 47 44 39 33 29 23 18 16 11 13 24
2 2 3 2 2 1 3 4 9 11 9 4 3 3 3 2 2 4 8 11 9 8 15 27 33 30 27 24 22 19 16 10 6 6 4 7 16 24 29 40 39 43 47 45 43 40 35 31 26 25 24 18 14 22
3 3 2 1 2 2 5 8 11 13 6 1 3 2 1 2 5 7 11 12 6 18 24 29 27 21 19 19 14 14 13 8 5 0 8 10 9 21 33 47 35 41 42 38 36 37 33 31 26 25 30 29 25 22
3 3 2 1 1 2 2 3 3 3 3 3 2 2 1 0 2 5 15 3 16 23 29 23 21 20 19 16 15 12 9 6 4 5 2 6 14 26 32 42 35 29 25 25 28 29 32 31 28 25 25 27 32 35
2 2 1 2 1 2 4 4 4 5 4 3 5 2 4 3 2 6 13 19 17 25 28 25 27 29 23 17 12 10 9 9 13 14 14 11 11 26 30 33 27 20 19 23 27 26 22 21 21 19 18 24 28 31
Wind_Direction_850mb
288 286 290 293 295 296 298 303 306 308 303 310 314 318 310 304 307 311 316 293 259 254 284 265 261 266 278 264 275 318 334 5 337 11 353 344 315 16 339 351 334 348 332 354 309 330 22 352 345 3 305 332 99 80
289 290 289 289 290 290 289 293 300 305 301 302 309 304 304 304 294 303 309 304 254 269 272 292 289 273 255 256 282 289 286 298 351 343 344 299 307 346 360 332 336 316 13 308 334 337 321 322 292 302 284 250 90 106
291 293 293 290 285 283 281 284 292 297 300 297 303 300 296 295 286 293 297 297 284 288 303 286 293 299 302 277 244 240 256 317 343 335 306 302 325 341 355 11 300 310 9 264 313 52 336 331 360 21 91 131 115 108
291 291 302 305 298 286 279 277 286 286 288 293 300 294 289 286 280 288 289 293 263 281 282 282 299 306 286 280 267 267 264 279 307 319 312 305 299 33 33 338 305 312 310 324 278 348 339 4 8 42 85 114 113 110
299 295 294 300 308 305 295 283 278 283 282 288 294 293 285 268 277 291 292 285 263 224 282 291 314 140 278 311 297 244 258 261 291 289 268 298 291 298 143 200 315 337 331 345 327 335 310 311 9 83 90 100 111 123
292 291 288 291 296 305 304 283 280 286 286 295 292 286 276 265 281 310 295 292 234 204 296 299 310 292 283 311 258 247 253 226 241 254 266 249 251 277 320 337 191 339 296 295 284 326 354 26 67 93 109 113 122 124
289 287 287 288 289 296 303 302 289 287 286 289 281 271 248 250 271 253 252 284 206 188 258 286 288 279 292 285 247 225 210 230 223 238 238 275 330 293 327 304 317 353 333 345 315 307 27 49 65 100 115 124 126 125
295 289 284 284 285 289 295 298 299 293 283 284 272 259 265 259 268 272 283 238 206 209 242 276 279 299 276 269 239 195 210 209 210 236 221 267 225 255 269 296 285 342 40 35 50 73 82 91 106 111 120 130 121 120
296 295 288 280 283 284 287 301 295 287 272 257 251 242 270 257 252 266 224 229 203 225 260 231 275 287 308 261 247 198 208 219 238 258 200 256 329 270 282 335 337 238 349 98 75 89 102 101 110 119 129 126 128 124
294 298 291 283 277 282 275 286 286 282 258 247 214 192 137 192 192 178 140 164 199 234 238 246 229 263 286 284 227 182 206 187 266 95 141 260 262 260 217 220 259 133 140 139 104 83 91 103 115 123 127 131 135 136
293 298 294 284 275 274 271 280 272 247 229 209 199 178 176 184 181 216 211 189 194 233 221 233 217 238 246 251 287 213 238 166 270 128 266 272 248 197 168 155 187 140 128 83 136 144 130 120 124 133 136 140 144 142
288 298 300 285 269 263 274 278 259 242 226 183 153 157 165 179 206 204 208 205 209 230 198 204 219 211 240 230 246 189 255 220 278 151 252 261 158 149 149 142 153 169 170 122 104 137 138 128 129 132 137 141 139 137
278 292 295 287 276 253 282 274 254 236 180 149 136 142 166 187 217 218 197 210 204 196 197 193 202 199 210 224 236 218 240 202 141 226 285 279 153 153 145 123 130 132 120 111 98 121 137 141 142 135 133 131 130 132
269 283 288 277 276 258 270 252 235 186 170 167 164 176 206 191 235 205 214 214 207 177 178 177 173 209 201 212 208 260 76 185 232 229 251 159 168 160 160 148 130 128 121 122 125 123 122 122 127 131 129 133 134 139
266 273 277 265 260 252 260 244 215 187 176 175 185 214 218 231 255 255 239 235 213 224 158 149 139 205 195 241 224 149 209 242 243 304 340 166 163 158 163 163 156 152 153 145 137 135 140 144 147 151 154 156 159 155
260 274 269 257 254 245 229 205 179 186 181 194 228 230 235 251 249 231 234 230 230 215 171 147 136 202 208 234 213 230 261 240 198 237 156 162 165 165 167 169 162 157 155 149 138 136 144 146 159 159 155 158 161 160
265 271 263 263 250 228 208 188 177 189 208 220 231 230 240 273 252 229 225 226 192 162 177 155 201 202 123 221 232 200 231 224 248 220 175 174 172 169 168 174 181 184 181 177 176 172 150 155 163 167 168 167 164 161
250 253 259 247 214 185 175 170 172 200 233 228 237 238 216 227 244 248 231 205 164 186 158 176 136 194 212 214 221 217 234 245 265 230 183 178 178 180 176 177 176 176 179 185 190 186 178 168 167 172 173 169 167 165
240 250 220 233 209 176 165 186 188 230 225 229 233 240 240 238 239 236 220 180 179 161 153 166 187 204 220 215 246 255 263 222 206 201 179 183 187 181 181 187 189 189 190 188 188 188 181 175 178 180 180 179 176 175
232 240 212 213 201 153 164 194 198 249 229 217 217 214 205 217 232 226 224 205 186 169 184 207 206 202 205 249 258 271 266 204 191 149 161 181 188 188 190 188 187 186 189 189 187 187 183 181 182 186 188 188 187 187
235 205 194 188 172 171 180 177 195 232 240 224 217 202 207 210 209 195 186 188 181 205 201 207 211 222 250 261 255 226 221 221 217 211 186 175 184 188 189 188 186 187 189 189 187 186 189 189 179 176 175 177 177 179
160 177 161 170 173 193 225 200 209 226 224 225 200 205 193 190 190 192 172 178 210 214 214 223 234 242 262 259 242 226 219 222 214 213 194 187 176 183 189 189 188 190 193 195 193 188 179 173 167 160 155 157 159 159
149 157 148 146 178 196 227 189 216 212 213 171 183 196 199 199 188 165 197 201 210 217 229 238 247 245 255 237 224 204 209 217 212 205 197 190 188 189 190 191 194 195 195 194 191 184 175 165 159 160 163 166 167 169
143 118 155 175 185 180 193 203 209 209 232 212 203 201 176 160 157 207 233 204 212 226 235 238 235 232 224 211 206 207 206 210 217 200 194 188 191 196 197 197 198 199 200 186 177 173 171 168 166 168 171 178 185 192
125 180 174 173 200 200 187 163 172 184 220 181 206 240 160 161 183 201 228 216 223 232 235 230 226 220 206 202 201 202 209 225 227 208 197 199 205 203 200 203 205 203 194 188 180 178 182 185 188 192 197 203 207 209
127 173 187 178 163 189 193 167 184 185 170 181 215 208 159 168 195 233 192 342 233 233 242 228 219 207 203 206 206 203 205 214 214 207 207 208 211 209 199 201 207 203 194 195 191 188 193 198 207 216 225 228 227 228
101 151 176 197 210 183 202 170 127 167 186 198 168 166 177 194 204 138 76 15 353 298 258 221 202 202 195 179 173 177 174 155 173 199 209 216 221 218 213 205 207 200 197 197 195 197 201 207 219 235 243 249 241 227
85 134 149 168 198 215 83 156 176 180 163 153 167 176 202 182 151 121 59 7 9 7 338 178 177 176 176 168 168 165 156 143 178 209 218 214 210 211 213 210 217 199 200 202 199 199 205 213 224 239 244 246 225 206
47 104 113 156 209 208 240 184 106 64 69 120 355 155 108 92 64 65 21 2 12 41 113 144 145 147 156 165 163 159 137 107 81 79 197 212 208 209 197 200 200 195 197 199 202 205 209 217 224 243 224 236 217 210
37 130 78 101 177 130 54 145 133 95 29 35 69 79 97 106 34 5 347 343 352 165 147 155 148 152 162 170 173 175 167 157 128 58 17 269 242 218 203 201 199 189 190 195 200 205 208 217 224 214 219 228 221 218
42 149 69 45 315 40 91 101 132 160 202 330 1 32 116 113 44 27 331 312 283 173 164 163 165 171 171 169 175 185 186 186 193 252 11 4 234 204 185 188 188 180 181 190 198 200 205 209 216 223 221 227 233 228
131 152 166 189 295 52 109 135 127 115 107 96 27 309 211 124 282 326 340 14 154 161 158 159 151 151 150 138 134 127 124 143 166 174 58 50 40 176 189 187 161 157 171 187 199 204 203 206 218 230 237 242 242 241
94 111 207 292 310 130 153 163 155 119 111 86 16 286 154 173 233 22 54 127 129 125 125 123 132 137 137 137 135 127 100 119 139 130 113 128 125 106 110 117 130 145 175 192 195 196 205 217 219 226 252 264 263 257